CAPE
3 4 3 4 1 0 0 0 0 0 0 0 0 0 0 0 0 0 0 0 0 0 0 0 0 0 0 0 0 0 0 0 0 0 0 0 0 0 0 0 0 0 0 0 0
0 1 0 4 3 3 2 1 0 0 0 0 0 0 0 0 0 0 0 0 0 0 0 0 0 0 0 0 0 0 0 0 0 0 0 0 0 0 0 0 0 0 0 0 18
3 4 3 2 2 2 1 1 1 0 0 0 0 0 0 0 0 0 0 0 0 0 0 0 0 0 0 0 0 0 0 0 0 0 0 0 0 0 0 0 0 0 0 0 0
4 4 3 2 1 2 1 0 0 0 0 0 0 0 0 0 0 0 0 0 0 0 0 0 0 0 0 0 0 0 0 0 0 0 0 0 0 0 0 0 0 0 0 0 0
4 3 2 1 2 1 0 0 0 0 0 0 0 0 0 0 0 0 0 0 0 0 0 0 0 0 0 0 0 0 0 0 0 0 0 0 0 0 0 0 0 0 0 0 0
3 2 1 1 1 1 0 0 0 0 0 0 0 0 0 0 0 0 0 0 0 0 0 0 0 0 0 0 0 0 0 0 0 0 0 0 0 0 0 0 0 0 0 0 0
2 1 0 0 0 0 0 0 0 0 0 0 0 0 0 0 0 0 0 0 0 0 0 0 0 0 0 0 0 0 0 0 0 0 0 0 0 0 0 0 0 0 0 0 0
0 0 0 0 0 0 0 0 0 0 0 0 0 0 0 0 0 0 0 0 0 0 0 0 0 0 0 0 0 0 0 0 0 0 0 0 0 0 0 0 0 0 0 0 0
0 0 0 0 0 0 0 0 0 0 0 0 0 0 0 0 0 0 0 0 0 0 0 0 0 0 0 0 0 0 0 0 0 0 0 0 0 0 0 0 0 0 0 0 0
0 0 0 0 0 0 0 0 0 0 0 0 0 0 0 0 0 0 0 0 0 0 0 0 0 0 0 0 0 0 0 0 0 0 0 0 0 0 0 0 0 0 0 0 0
0 0 0 0 0 0 0 0 0 0 0 0 0 0 0 0 0 0 0 0 0 0 0 0 0 0 0 0 0 0 0 0 0 0 0 0 0 0 0 0 0 0 0 0 0
0 0 0 0 0 0 0 0 0 0 0 0 0 0 0 0 0 0 0 0 0 0 0 0 0 0 0 0 0 0 0 0 0 0 0 0 0 0 0 0 0 0 0 0 0
0 0 0 0 0 0 0 0 0 0 0 0 0 0 0 0 0 0 0 0 0 0 0 0 0 0 0 0 0 0 0 0 0 0 0 0 0 0 0 0 0 0 0 0 0
0 0 0 0 0 0 0 0 0 0 0 0 0 0 0 0 0 0 0 0 0 0 0 0 0 0 0 0 0 0 0 0 0 0 0 0 0 0 0 0 0 0 0 0 0
0 0 0 0 0 0 0 0 0 0 0 0 0 0 0 0 0 0 0 0 0 0 0 0 0 0 0 0 0 0 0 0 0 0 0 0 0 0 0 0 0 0 0 0 0
0 0 0 0 0 0 0 0 0 0 0 0 0 0 0 0 0 0 0 0 0 0 0 0 0 0 0 0 0 0 0 0 0 0 0 0 0 0 0 0 0 0 0 0 0
0 0 0 0 0 0 0 0 0 0 0 0 0 0 0 0 0 0 0 0 0 0 0 0 0 0 0 0 0 0 0 0 0 0 0 0 0 0 0 0 0 0 0 0 0
0 0 0 0 0 0 0 0 0 0 0 0 0 0 0 0 0 0 0 0 0 0 0 0 0 0 0 0 0 0 0 0 0 0 0 0 0 0 0 0 0 0 0 0 0
0 0 0 0 0 0 0 0 0 0 0 0 0 0 0 0 0 0 0 0 0 0 0 0 0 0 0 0 0 0 0 0 0 0 0 0 0 0 0 0 0 0 0 0 0
0 0 0 0 0 0 0 0 0 0 0 0 0 0 0 0 0 0 0 0 0 0 0 0 0 0 0 0 0 0 0 0 0 0 0 0 0 0 0 0 0 0 0 0 0
0 0 0 0 0 0 0 0 0 0 0 0 0 0 0 0 0 0 0 0 0 0 0 0 0 0 0 0 0 0 0 0 0 0 0 0 0 0 0 0 0 0 0 0 0
0 0 0 0 0 0 0 0 0 0 0 0 0 0 0 0 0 0 0 0 0 0 0 0 0 0 0 0 0 0 0 0 0 0 0 0 0 0 0 0 0 0 0 0 0
0 0 0 0 0 0 0 0 0 0 0 0 0 0 0 0 0 0 0 0 0 0 0 0 0 0 0 0 0 0 0 0 0 0 0 0 0 0 0 0 0 0 0 0 0
0 0 0 0 0 0 0 0 0 0 0 0 0 0 0 0 0 0 0 0 0 0 0 0 0 0 0 0 0 0 0 0 0 0 0 0 0 0 0 0 0 0 0 0 0
0 0 0 0 0 0 0 0 0 0 0 0 0 0 0 0 0 0 0 0 0 0 0 0 0 0 0 0 0 0 0 0 0 0 0 0 0 0 0 0 0 0 0 0 0
0 0 0 0 0 0 0 0 0 0 0 0 0 0 0 0 0 0 0 0 0 0 0 0 0 0 0 0 0 0 0 0 0 0 0 0 0 0 0 0 0 0 0 0 0
0 0 0 0 0 0 0 0 0 0 0 0 0 0 0 0 0 0 0 0 0 0 0 0 0 0 0 0 0 0 0 0 0 0 0 0 0 0 0 0 0 0 0 0 0
CIN
0 0 0 0 0 0 0 0 0 0 0 0 0 0 0 0 0 0 0 0 0 0 0 0 0 0 0 0 0 0 0 0 0 0 0 0 0 0 0 0 0 0 0 0 0
-2 0 -1 0 0 0 0 0 0 0 0 0 0 0 0 0 0 0 0 0 0 0 0 0 0 0 0 0 0 0 0 0 0 0 0 0 0 0 0 0 0 0 0 0 -50
0 0 0 0 0 0 0 0 0 0 0 0 0 0 0 0 0 0 0 0 0 0 0 0 0 0 0 0 0 0 0 0 0 0 0 0 0 0 0 0 0 0 0 0 0
0 0 0 0 0 0 0 0 0 0 0 0 0 0 0 0 0 0 0 0 0 0 0 0 0 0 0 0 0 0 0 0 0 0 0 0 0 0 0 0 0 0 0 0 0
0 0 0 0 0 0 0 0 0 0 0 0 0 0 0 0 0 0 0 0 0 0 0 0 0 0 0 0 0 0 0 0 0 0 0 0 0 0 0 0 0 0 0 0 0
0 0 0 0 0 0 0 0 0 0 0 0 0 0 0 0 0 0 0 0 0 0 0 0 0 0 0 0 0 0 0 0 0 0 0 0 0 0 0 0 0 0 0 0 0
0 0 0 0 0 0 0 0 0 0 0 0 0 0 0 0 0 0 0 0 0 0 0 0 0 0 0 0 0 0 0 0 0 0 0 0 0 0 0 0 0 0 0 0 0
0 0 0 0 0 0 0 0 0 0 0 0 0 0 0 0 0 0 0 0 0 0 0 0 0 0 0 0 0 0 0 0 0 0 0 0 0 0 0 0 0 0 0 0 0
0 0 0 0 0 0 0 0 0 0 0 0 0 0 0 0 0 0 0 0 0 0 0 0 0 0 0 0 0 0 0 0 0 0 0 0 0 0 0 0 0 0 0 0 0
0 0 0 0 0 0 0 0 0 0 0 0 0 0 0 0 0 0 0 0 0 0 0 0 0 0 0 0 0 0 0 0 0 0 0 0 0 0 0 0 0 0 0 0 0
0 0 0 0 0 0 0 0 0 0 0 0 0 0 0 0 0 0 0 0 0 0 0 0 0 0 0 0 0 0 0 0 0 0 0 0 0 0 0 0 0 0 0 0 0
0 0 0 0 0 0 0 0 0 0 0 0 0 0 0 0 0 0 0 0 0 0 0 0 0 0 0 0 0 0 0 0 0 0 0 0 0 0 0 0 0 0 0 0 0
0 0 0 0 0 0 0 0 0 0 0 0 0 0 0 0 0 0 0 0 0 0 0 0 0 0 0 0 0 0 0 0 0 0 0 0 0 0 0 0 0 0 0 0 0
0 0 0 0 0 0 0 0 0 0 0 0 0 0 0 0 0 0 0 0 0 0 0 0 0 0 0 0 0 0 0 0 0 0 0 0 0 0 0 0 0 0 0 0 0
0 0 0 0 0 0 0 0 0 0 0 0 0 0 0 0 0 0 0 0 0 0 0 0 0 0 0 0 0 0 0 0 0 0 0 0 0 0 0 0 0 0 0 0 0
0 0 0 0 0 0 0 0 0 0 0 0 0 0 0 0 0 0 0 0 0 0 0 0 0 0 0 0 0 0 0 0 0 0 0 0 0 0 0 0 0 0 0 0 0
0 0 0 0 0 0 0 0 0 0 0 0 0 0 0 0 0 0 0 0 0 0 0 0 0 0 0 0 0 0 0 0 0 0 0 0 0 0 0 0 0 0 0 0 0
0 0 0 0 0 0 0 0 0 0 0 0 0 0 0 0 0 0 0 0 0 0 0 0 0 0 0 0 0 0 0 0 0 0 0 0 0 0 0 0 0 0 0 0 0
0 0 0 0 0 0 0 0 0 0 0 0 0 0 0 0 0 0 0 0 0 0 0 0 0 0 0 0 0 0 0 0 0 0 0 0 0 0 0 0 0 0 0 0 0
0 0 0 0 0 0 0 0 0 0 0 0 0 0 0 0 0 0 0 0 0 0 0 0 0 0 0 0 0 0 0 0 0 0 0 0 0 0 0 0 0 0 0 0 0
0 0 0 0 0 0 0 0 0 0 0 0 0 0 0 0 0 0 0 0 0 0 0 0 0 0 0 0 0 0 0 0 0 0 0 0 0 0 0 0 0 0 0 0 0
0 0 0 0 0 0 0 0 0 0 0 0 0 0 0 0 0 0 0 0 0 0 0 0 0 0 0 0 0 0 0 0 0 0 0 0 0 0 0 0 0 0 0 0 0
0 0 0 0 0 0 0 0 0 0 0 0 0 0 0 0 0 0 0 0 0 0 0 0 0 0 0 0 0 0 0 0 0 0 0 0 0 0 0 0 0 0 0 0 0
0 0 0 0 0 0 0 0 0 0 0 0 0 0 0 0 0 0 0 0 0 0 0 0 0 0 0 0 0 0 0 0 0 0 0 0 0 0 0 0 0 0 0 0 0
0 0 0 0 0 0 0 0 0 0 0 0 0 0 0 0 0 0 0 0 0 0 0 0 0 -1 0 0 0 0 0 0 0 0 0 0 0 0 0 0 0 0 0 0 0
0 0 0 0 0 0 0 0 0 0 0 0 0 0 0 0 0 0 0 0 0 0 0 0 0 0 0 0 0 0 0 0 0 0 0 0 0 0 0 0 0 0 0 0 0
0 0 0 0 0 0 0 0 0 0 0 0 0 0 0 0 0 -2 0 0 0 0 0 0 0 0 0 0 0 0 0 0 0 0 0 0 0 0 0 0 0 0 0 0 0
Wind_Speed
2 1 1 2 2 3 3 2 2 6 11 19 26 28 31 32 27 21 25 23 22 24 24 24 25 24 21 21 21 19 22 24 23 20 16 18 22 24 29 35 34 35 36 33 36
28 17 13 7 4 3 4 3 3 3 4 6 9 11 20 30 23 20 19 20 21 23 26 27 26 25 23 22 21 20 22 22 16 13 15 21 25 33 34 36 38 41 40 34 31
30 30 29 17 6 7 7 7 7 7 6 6 7 9 12 19 23 19 17 19 20 22 23 23 23 24 24 21 20 20 21 19 15 12 17 19 31 30 35 37 38 42 42 38 35
31 31 32 32 31 10 8 9 9 11 11 12 12 12 14 18 23 16 16 17 19 20 22 23 24 25 25 23 19 20 16 15 15 13 15 11 25 31 35 42 41 41 43 40 38
32 33 33 33 33 30 18 13 13 13 14 15 15 15 17 19 16 13 15 17 19 20 22 23 24 24 25 22 20 17 18 15 12 11 9 7 9 9 39 40 41 40 42 42 40
33 34 34 35 35 34 30 21 16 16 16 15 15 15 17 19 14 13 14 17 18 19 20 20 21 21 21 22 21 20 19 14 12 10 9 10 13 12 28 33 36 37 41 39 38
34 35 35 36 36 35 31 25 20 18 17 15 15 15 16 14 12 12 13 15 15 17 19 18 19 21 21 23 20 19 21 21 17 16 13 14 18 11 14 30 31 33 37 38 37
35 36 36 36 37 37 34 31 24 20 18 16 15 16 18 13 12 11 13 16 15 15 17 17 17 19 19 20 22 23 21 28 19 15 14 13 10 7 7 30 32 31 34 38 38
37 37 37 38 38 38 37 32 25 23 20 15 19 17 19 14 14 12 12 16 16 17 16 17 18 20 20 24 26 24 27 24 23 17 14 12 10 6 5 29 36 37 37 39 39
38 39 39 39 39 39 38 26 22 22 20 19 18 21 16 17 14 15 13 15 17 18 20 19 21 22 21 23 29 26 26 22 19 19 14 11 12 14 9 21 36 38 37 38 41
39 40 40 41 40 39 32 25 27 25 21 21 22 20 19 15 15 15 15 15 18 20 22 21 24 21 20 17 18 20 20 19 13 12 17 13 11 10 9 14 28 34 36 37 39
41 41 42 42 40 37 25 26 24 24 32 21 18 19 15 14 17 15 12 17 19 23 22 24 23 18 18 18 18 18 19 18 17 20 19 16 9 6 9 10 22 27 32 34 36
43 43 43 42 41 24 24 23 21 23 27 26 20 18 12 7 14 15 11 17 20 23 21 22 23 21 20 20 19 18 17 19 18 19 19 21 16 18 15 11 19 23 26 30 34
45 45 43 42 24 25 24 22 21 22 31 27 19 17 13 12 16 15 12 19 21 25 24 22 21 20 21 19 16 21 16 18 19 26 23 25 20 16 17 13 21 22 22 25 31
47 46 41 29 26 24 22 21 20 22 31 21 18 15 14 14 18 18 15 20 23 24 24 26 24 22 21 18 14 18 20 21 21 20 21 20 20 16 15 18 14 26 25 26 28
47 42 32 23 20 21 21 19 20 24 26 21 19 21 20 16 18 19 21 20 22 25 22 21 20 21 17 18 12 20 23 23 21 20 22 20 22 15 18 15 9 7 28 27 28
43 33 27 23 23 23 20 18 24 23 23 24 23 21 21 22 22 21 22 23 22 28 29 27 20 18 15 19 19 18 24 24 21 22 23 22 18 11 10 9 11 8 8 22 29
38 26 25 28 24 23 18 22 26 24 26 25 27 28 27 26 23 21 21 24 21 23 27 27 26 19 14 18 22 19 20 23 26 24 23 21 19 17 15 11 9 16 19 17 25
30 24 26 32 26 21 20 26 28 27 28 32 32 30 26 21 23 22 22 27 23 18 23 26 23 18 17 17 17 19 21 19 23 21 21 17 18 19 18 17 16 21 25 27 21
29 25 30 34 23 21 23 26 24 27 29 26 30 26 29 28 30 25 23 26 27 22 18 21 28 20 17 15 17 16 16 23 22 27 26 20 23 17 25 22 24 28 24 27 20
27 27 31 31 21 23 26 25 24 27 30 28 27 28 27 29 25 23 21 22 26 27 24 24 21 23 21 17 18 18 18 17 19 19 26 28 21 17 20 18 23 23 23 23 19
28 31 33 26 26 24 26 25 28 28 29 26 23 26 26 28 26 23 24 22 29 28 28 25 26 30 28 24 19 18 17 14 20 22 21 27 18 8 17 24 31 23 17 15 18
30 27 28 25 30 29 26 25 24 28 28 27 27 26 29 29 30 26 26 21 30 28 29 29 25 34 33 22 19 19 18 17 20 23 25 32 26 19 30 45 46 44 31 20 18
31 33 30 28 25 26 28 27 28 26 24 27 27 26 32 31 29 33 34 28 37 36 37 29 28 29 36 34 32 35 32 28 29 33 35 22 34 37 42 51 50 46 42 31 20
31 28 28 32 31 29 26 27 28 29 25 29 25 29 33 34 38 30 32 40 38 34 30 30 38 36 38 37 38 41 41 35 34 32 38 41 51 28 49 52 50 47 41 42 26
29 30 28 27 27 29 28 29 28 28 27 28 28 35 36 35 35 43 39 38 36 31 36 37 40 40 51 43 43 52 47 41 38 39 43 43 51 46 43 43 47 46 45 41 28
27 25 26 27 29 30 27 28 28 30 23 25 31 38 36 33 32 38 40 39 37 45 44 39 37 37 47 39 43 51 45 38 38 35 37 42 39 41 43 44 46 45 42 41 37
Wind_Direction
105 145 164 160 160 177 171 158 102 56 35 16 357 353 346 340 3 26 18 29 32 28 29 27 20 16 23 20 18 19 0 352 351 349 348 340 324 307 293 283 277 265 257 260 269
347 331 64 72 86 92 91 95 82 67 57 46 37 34 20 353 15 23 39 38 38 32 25 20 20 22 20 18 16 12 1 359 5 358 338 330 320 299 287 283 274 263 258 262 273
347 345 339 309 63 59 59 56 53 50 49 47 43 40 36 26 12 28 51 43 40 36 37 34 31 28 21 21 20 16 4 6 353 340 337 330 310 303 286 281 272 258 256 261 263
347 343 340 342 353 45 46 44 42 38 37 33 30 31 30 27 4 34 51 46 41 41 34 30 27 23 19 17 21 8 3 356 353 353 341 322 320 300 284 268 267 261 254 256 255
345 343 341 341 343 358 27 33 32 30 27 25 24 26 23 11 14 49 46 41 37 34 28 26 25 24 19 19 15 9 8 9 357 340 332 307 253 287 278 271 263 262 252 251 253
341 341 342 342 345 344 356 15 21 20 20 22 23 25 15 2 38 49 41 33 30 27 26 27 24 25 23 18 17 16 4 355 1 3 11 356 341 348 308 277 270 261 249 250 249
337 336 335 336 338 344 354 5 8 8 12 18 23 23 6 5 36 43 37 27 32 25 20 26 26 20 19 16 21 12 10 15 30 31 24 19 349 348 337 295 276 263 251 250 251
334 332 332 332 334 337 343 352 360 5 9 16 21 14 357 23 30 27 26 16 25 24 21 23 24 16 20 18 17 17 21 14 23 27 33 33 359 9 331 293 272 267 259 249 248
333 329 327 327 330 330 335 346 358 2 6 20 6 5 354 24 9 17 21 9 15 16 19 19 17 13 15 11 13 19 11 14 18 32 34 27 316 318 293 283 266 262 258 249 248
335 331 332 330 333 331 333 353 358 358 3 3 2 352 356 355 9 11 17 11 6 8 5 10 9 4 7 9 4 8 11 17 15 25 15 351 305 278 273 249 250 258 255 251 249
335 331 331 329 332 331 343 352 348 347 350 341 337 338 343 352 4 2 8 8 2 357 354 2 355 355 1 9 11 10 12 9 6 22 17 7 342 296 265 229 239 256 253 253 251
334 333 330 328 330 330 348 347 349 346 334 338 332 327 330 344 345 354 12 355 354 347 353 350 350 0 4 7 7 8 8 11 21 26 18 16 356 37 72 81 276 266 259 257 258
329 327 325 325 323 346 348 348 354 352 338 340 344 346 351 360 348 352 5 354 345 343 347 343 347 357 357 357 0 2 4 9 12 15 25 25 45 43 62 79 296 290 278 269 264
326 324 326 327 346 345 344 350 354 354 335 341 353 358 1 359 346 359 2 349 344 339 343 342 349 349 349 351 1 357 14 9 8 9 18 23 31 54 55 64 39 320 308 290 274
326 325 329 339 337 339 343 349 355 352 333 350 352 7 360 344 345 346 353 343 333 333 337 336 337 340 341 351 7 0 2 1 4 11 19 32 33 46 52 52 54 318 317 307 297
331 335 345 355 354 350 350 354 352 340 330 343 350 342 338 340 340 342 338 338 336 329 331 329 337 339 346 352 5 354 353 357 7 17 14 26 26 42 43 47 47 40 325 314 305
337 348 359 1 350 350 354 354 335 327 340 338 338 342 336 330 331 334 332 331 331 328 327 331 337 347 351 345 355 357 353 355 2 6 7 16 25 40 36 50 50 36 37 3 315
345 360 2 360 352 349 353 339 322 330 326 333 330 326 321 327 328 334 335 331 332 327 325 326 325 342 354 343 343 349 353 350 345 354 356 8 16 25 31 36 54 38 33 33 358
353 356 356 346 348 349 342 325 324 329 329 326 326 323 325 329 335 334 330 324 328 333 324 324 325 342 343 347 349 346 343 351 342 351 355 8 8 17 22 24 26 20 15 13 20
350 348 349 344 350 347 334 326 329 336 332 331 324 328 322 322 324 328 330 332 324 334 335 329 320 336 348 355 348 343 354 337 341 333 338 355 353 8 17 18 10 358 6 3 8
355 348 351 346 355 342 329 328 330 335 336 331 326 322 322 322 326 328 331 331 324 318 325 321 321 321 334 339 338 340 337 340 339 339 329 335 352 354 353 5 5 2 357 354 353
356 343 351 354 341 341 333 333 333 332 337 332 333 328 323 322 322 323 319 321 325 323 320 322 315 310 315 324 330 332 332 335 327 331 333 327 271 3 351 350 346 349 330 334 345
355 352 358 0 336 336 336 333 336 335 334 330 327 328 321 318 314 318 316 323 320 324 321 319 315 309 311 326 335 330 334 333 329 325 318 313 325 357 336 309 302 299 300 344 344
356 344 351 0 359 345 338 335 333 335 333 332 327 325 318 314 313 308 306 311 309 310 309 312 305 300 298 301 309 303 305 309 309 307 308 288 291 273 281 310 299 296 295 340 345
1 356 356 344 345 347 346 340 336 333 334 332 328 328 320 312 310 311 310 306 310 311 314 312 298 298 297 299 300 298 297 299 296 297 296 299 300 308 284 296 295 296 286 310 344
0 355 355 352 350 346 345 341 339 336 333 330 328 323 318 313 310 304 309 311 308 312 312 309 299 301 294 296 295 291 291 293 293 295 294 297 297 308 314 316 312 304 299 292 332
5 2 356 350 348 345 345 344 339 338 341 337 329 322 321 321 320 312 307 305 301 301 302 301 301 301 295 302 298 291 294 290 294 298 298 295 303 311 310 312 311 307 308 300 302